BCS839 EDDF-OBBI

Flight info

Callsign BCS839
Flight time N/A
Altitude 31000
Route SULUS4L SULUS L984 OKG DCT ROMIS DCT PITOK/N0485F330 DCT PERIT DCT BADOR DCT APROB DCT ADORU UN739 TUMER UT38 VESAR/N0483F340 DCT PASOS/N0486F330 L550 KARIK B411 DEESA Y415 TAMRO N318 NADEN/N0444F210 N318 LADNA
Aircraft B77L/H-SDE1E2E3FGHIJ2J3J4J5M1RWXY/LB1D1

Departure

Time 2026-05-06 08:22
Airport Frankfurt Main Airport (EDDF)

Arrival

Time N/A
Airport Bahrain International Airport (OBBI)
Time Latitude Longitude Altitude Speed Heading
2026-05-06 07:49 50.03741 8.53233 357 ft 0 kts 339°
2026-05-06 08:11 50.03739 8.53234 347 ft 2 kts 339°
2026-05-06 08:11 50.03723 8.53243 357 ft 4 kts 340°
2026-05-06 08:11 50.03702 8.53256 357 ft 4 kts 342°
2026-05-06 08:11 50.03677 8.53258 356 ft 4 kts 24°
2026-05-06 08:12 50.03656 8.53235 356 ft 4 kts 51°
2026-05-06 08:12 50.03646 8.53215 356 ft 1 kts 59°
2026-05-06 08:16 50.03648 8.53220 356 ft 1 kts 63°
2026-05-06 08:16 50.03649 8.53227 356 ft 1 kts 69°
2026-05-06 08:16 50.03651 8.53235 356 ft 1 kts 73°
2026-05-06 08:17 50.03655 8.53256 356 ft 4 kts 72°
2026-05-06 08:17 50.03671 8.53332 356 ft 11 kts 72°
2026-05-06 08:17 50.03698 8.53449 350 ft 12 kts 69°
2026-05-06 08:17 50.03683 8.53566 356 ft 11 kts 144°
2026-05-06 08:18 50.03626 8.53506 350 ft 12 kts 244°
2026-05-06 08:18 50.03593 8.53375 350 ft 14 kts 250°
2026-05-06 08:18 50.03557 8.53222 351 ft 16 kts 249°
2026-05-06 08:18 50.03516 8.53052 350 ft 18 kts 249°
2026-05-06 08:19 50.03469 8.52866 337 ft 19 kts 247°
2026-05-06 08:19 50.03418 8.52677 335 ft 16 kts 248°
2026-05-06 08:19 50.03372 8.52595 335 ft 10 kts 197°
2026-05-06 08:19 50.03355 8.52593 337 ft 0 kts 180°
2026-05-06 08:21 50.03323 8.52593 337 ft 18 kts 179°
2026-05-06 08:21 50.02967 8.52598 340 ft 85 kts 179°
2026-05-06 08:21 50.02158 8.52603 336 ft 146 kts 180°
2026-05-06 08:21 50.00978 8.52617 462 ft 182 kts 179°
2026-05-06 08:22 49.99743 8.52643 1169 ft 174 kts 180°
2026-05-06 08:22 49.98487 8.52683 1558 ft 186 kts 180°
2026-05-06 08:22 49.97188 8.52839 2042 ft 190 kts 165°
2026-05-06 08:22 49.96074 8.54054 2234 ft 213 kts 126°
2026-05-06 08:23 49.95347 8.56140 2453 ft 226 kts 119°
2026-05-06 08:23 49.94616 8.58364 2748 ft 235 kts 120°
2026-05-06 08:23 49.93973 8.60732 3096 ft 245 kts 103°
2026-05-06 08:23 49.93843 8.63454 3325 ft 259 kts 91°
2026-05-06 08:24 49.93801 8.66306 3765 ft 269 kts 93°
2026-05-06 08:24 49.93506 8.69170 4119 ft 272 kts 118°
2026-05-06 08:24 49.92305 8.71358 4567 ft 268 kts 149°
2026-05-06 08:24 49.90731 8.72948 5100 ft 272 kts 149°
2026-05-06 08:25 49.89198 8.74598 5788 ft 272 kts 147°
2026-05-06 08:25 49.87868 8.76720 6210 ft 282 kts 122°
2026-05-06 08:25 49.86974 8.79442 6678 ft 285 kts 120°
2026-05-06 08:25 49.86035 8.82154 7275 ft 286 kts 122°
2026-05-06 08:26 49.85068 8.84837 7894 ft 287 kts 122°
2026-05-06 08:26 49.84084 8.87545 8467 ft 290 kts 122°
2026-05-06 08:26 49.83091 8.90276 9080 ft 291 kts 122°
2026-05-06 08:26 49.82093 8.93018 9700 ft 293 kts 123°
2026-05-06 08:27 49.81085 8.95787 10162 ft 301 kts 123°
2026-05-06 08:27 49.80022 8.98700 10297 ft 321 kts 123°
2026-05-06 08:27 49.78893 9.01794 10473 ft 340 kts 122°
2026-05-06 08:27 49.77696 9.05073 10625 ft 360 kts 122°
2026-05-06 08:28 49.76444 9.08520 10985 ft 372 kts 120°
2026-05-06 08:28 49.75489 9.12300 11330 ft 385 kts 107°
2026-05-06 08:28 49.74893 9.16376 11989 ft 391 kts 104°
2026-05-06 08:28 49.74328 9.20494 12829 ft 392 kts 105°
2026-05-06 08:29 49.73711 9.24618 13582 ft 396 kts 106°
2026-05-06 08:29 49.73055 9.28778 14219 ft 400 kts 107°
2026-05-06 08:29 49.72404 9.32812 14884 ft 403 kts 107°
2026-05-06 08:29 49.71717 9.37027 15565 ft 406 kts 107°
2026-05-06 08:30 49.71023 9.41267 16225 ft 409 kts 107°
2026-05-06 08:30 49.70321 9.45548 16880 ft 413 kts 107°
2026-05-06 08:30 49.69612 9.49859 17519 ft 416 kts 107°
2026-05-06 08:30 49.68894 9.54222 18035 ft 423 kts 107°
2026-05-06 08:31 49.68165 9.58639 18539 ft 427 kts 107°
2026-05-06 08:31 49.67429 9.63103 19089 ft 429 kts 106°
2026-05-06 08:31 49.67025 9.67681 19457 ft 439 kts 89°
2026-05-06 08:31 49.67634 9.72323 19865 ft 442 kts 73°
2026-05-06 08:32 49.68586 9.76880 20223 ft 450 kts 75°
2026-05-06 08:32 49.69458 9.81539 20718 ft 453 kts 76°
2026-05-06 08:32 49.70286 9.86248 21296 ft 455 kts 76°
2026-05-06 08:32 49.71109 9.90981 21831 ft 458 kts 76°
2026-05-06 08:33 49.72100 9.95675 22263 ft 462 kts 65°
2026-05-06 08:33 49.73823 9.99892 22495 ft 468 kts 53°
2026-05-06 08:33 49.75805 10.03934 22862 ft 474 kts 53°
2026-05-06 08:33 49.77798 10.08010 23419 ft 476 kts 53°
2026-05-06 08:34 49.79749 10.12072 23886 ft 478 kts 54°
2026-05-06 08:34 49.83674 10.20474 24623 ft 487 kts 55°
2026-05-06 08:34 49.85648 10.24775 24987 ft 491 kts 55°
2026-05-06 08:35 49.87629 10.29112 25368 ft 494 kts 55°
2026-05-06 08:35 49.89547 10.33543 25729 ft 497 kts 61°
2026-05-06 08:35 49.91041 10.38394 26074 ft 499 kts 71°
2026-05-06 08:35 49.92049 10.43534 26445 ft 500 kts 79°
2026-05-06 08:36 49.92632 10.48841 26818 ft 500 kts 86°
2026-05-06 08:36 49.93014 10.54214 27154 ft 503 kts 86°
2026-05-06 08:36 49.93411 10.59638 27496 ft 507 kts 86°
2026-05-06 08:36 49.93822 10.65094 27831 ft 511 kts 86°
2026-05-06 08:37 49.94246 10.70593 28131 ft 515 kts 86°
2026-05-06 08:37 49.94681 10.76125 28461 ft 518 kts 86°
2026-05-06 08:37 49.95117 10.81686 28808 ft 520 kts 86°
2026-05-06 08:37 49.95556 10.87282 29126 ft 523 kts 86°
2026-05-06 08:38 49.95996 10.92902 29422 ft 526 kts 86°
2026-05-06 08:38 49.96434 10.98545 29758 ft 527 kts 86°
2026-05-06 08:38 49.96869 11.04187 30103 ft 527 kts 86°
2026-05-06 08:38 49.97302 11.09827 30516 ft 525 kts 86°
2026-05-06 08:39 49.97730 11.15454 30831 ft 525 kts 86°
2026-05-06 08:39 49.98578 11.26745 30788 ft 525 kts 87°
2026-05-06 08:40 49.99410 11.37979 30788 ft 522 kts 87°
2026-05-06 08:40 50.00229 11.49184 30773 ft 521 kts 87°
2026-05-06 08:41 50.01035 11.60372 30789 ft 521 kts 87°
2026-05-06 08:41 50.01832 11.71564 30796 ft 521 kts 87°
2026-05-06 08:42 50.02617 11.82762 30801 ft 521 kts 87°
2026-05-06 08:42 50.03388 11.93893 30793 ft 521 kts 87°
2026-05-06 08:43 50.04152 12.05114 30794 ft 522 kts 87°
2026-05-06 08:43 50.04908 12.16358 30797 ft 523 kts 87°
2026-05-06 08:44 50.05656 12.27618 30797 ft 523 kts 88°
2026-05-06 08:44 50.06104 12.38882 30795 ft 519 kts 96°
2026-05-06 08:45 50.05314 12.49965 30795 ft 512 kts 107°
2026-05-06 08:45 50.03755 12.60777 30816 ft 513 kts 107°
2026-05-06 08:46 50.02197 12.71602 30812 ft 513 kts 107°
2026-05-06 08:46 50.00659 12.82445 30822 ft 514 kts 107°
2026-05-06 08:47 49.99128 12.93289 30809 ft 514 kts 107°
2026-05-06 08:47 49.97586 13.04126 30819 ft 514 kts 107°
2026-05-06 08:48 49.96033 13.14959 30810 ft 514 kts 108°
2026-05-06 08:48 49.94471 13.25774 30810 ft 514 kts 108°
2026-05-06 08:49 49.92897 13.36588 30818 ft 513 kts 108°
2026-05-06 08:49 49.91314 13.47390 30831 ft 514 kts 108°
2026-05-06 08:50 49.89720 13.58189 30822 ft 514 kts 108°
2026-05-06 08:50 49.88116 13.68985 30819 ft 514 kts 108°
2026-05-06 08:51 49.86505 13.79755 30822 ft 513 kts 108°
2026-05-06 08:51 49.84881 13.90525 30825 ft 513 kts 108°
2026-05-06 08:52 49.83247 14.01294 30820 ft 513 kts 109°
2026-05-06 08:52 49.81604 14.12053 30843 ft 514 kts 109°
2026-05-06 08:53 49.79952 14.22801 30830 ft 514 kts 109°
2026-05-06 08:53 49.78288 14.33556 30837 ft 514 kts 109°
2026-05-06 08:54 49.76611 14.44314 30825 ft 514 kts 109°
2026-05-06 08:54 49.74940 14.54974 30837 ft 514 kts 109°
2026-05-06 08:55 49.73244 14.65717 30811 ft 514 kts 110°
2026-05-06 08:55 49.71538 14.76449 30823 ft 515 kts 110°
2026-05-06 08:56 49.69807 14.87267 30834 ft 516 kts 110°
2026-05-06 08:56 49.68087 14.97947 30828 ft 516 kts 110°
2026-05-06 08:57 49.66344 15.08709 30825 ft 517 kts 110°
2026-05-06 08:57 49.64589 15.19473 30832 ft 517 kts 110°
2026-05-06 08:58 49.63109 15.28492 30839 ft 518 kts 110°
2026-05-06 08:58 49.61330 15.39277 30834 ft 519 kts 110°
2026-05-06 08:59 49.59541 15.50054 30826 ft 519 kts 110°
2026-05-06 08:59 49.57742 15.60823 30840 ft 519 kts 110°
2026-05-06 09:00 49.55943 15.71522 30845 ft 519 kts 110°
2026-05-06 09:00 49.54124 15.82277 30846 ft 519 kts 110°
2026-05-06 09:01 49.52295 15.93017 30841 ft 518 kts 110°
2026-05-06 09:01 49.50461 16.03724 30841 ft 517 kts 110°
2026-05-06 09:02 49.48621 16.14408 30845 ft 516 kts 110°
2026-05-06 09:02 49.46773 16.25059 30840 ft 516 kts 110°
2026-05-06 09:03 49.44918 16.35699 30841 ft 514 kts 109°
2026-05-06 09:03 49.43061 16.46280 30834 ft 512 kts 110°
2026-05-06 09:04 49.41202 16.56813 30840 ft 510 kts 110°
2026-05-06 09:04 49.39337 16.67310 30853 ft 509 kts 110°
2026-05-06 09:05 49.37465 16.77789 30839 ft 509 kts 109°
2026-05-06 09:05 49.35583 16.88262 30851 ft 510 kts 110°
2026-05-06 09:06 49.33687 16.98751 30856 ft 511 kts 110°
2026-05-06 09:06 49.31781 17.09241 30858 ft 512 kts 110°
2026-05-06 09:07 49.29873 17.19677 30861 ft 512 kts 109°
2026-05-06 09:07 49.27946 17.30163 30848 ft 512 kts 109°
2026-05-06 09:08 49.26009 17.40645 30858 ft 511 kts 109°
2026-05-06 09:08 49.24064 17.51104 30865 ft 511 kts 110°
2026-05-06 09:09 49.22110 17.61556 30861 ft 511 kts 110°
2026-05-06 09:09 49.20148 17.71995 30856 ft 511 kts 110°
2026-05-06 09:10 49.18178 17.82417 30864 ft 510 kts 110°
2026-05-06 09:10 49.16199 17.92823 30868 ft 510 kts 110°
2026-05-06 09:11 49.14211 18.03232 30864 ft 510 kts 110°
2026-05-06 09:11 49.11951 18.13460 30861 ft 506 kts 118°
2026-05-06 09:12 49.08737 18.22965 30875 ft 504 kts 122°
2026-05-06 09:12 49.05440 18.32409 30874 ft 505 kts 122°
2026-05-06 09:13 49.02168 18.41887 30872 ft 505 kts 121°
2026-05-06 09:13 48.98906 18.51367 30874 ft 506 kts 121°
2026-05-06 09:14 48.95639 18.60842 30877 ft 505 kts 121°
2026-05-06 09:14 48.92361 18.70300 30869 ft 506 kts 121°
2026-05-06 09:15 48.89071 18.79763 30883 ft 506 kts 121°
2026-05-06 09:15 48.85774 18.89202 30888 ft 506 kts 121°
2026-05-06 09:16 48.82496 18.98561 30881 ft 505 kts 121°
2026-05-06 09:16 48.79191 19.07951 30898 ft 504 kts 121°
2026-05-06 09:17 48.75875 19.17333 30900 ft 505 kts 121°
2026-05-06 09:17 48.72547 19.26727 30900 ft 507 kts 121°
2026-05-06 09:18 48.69203 19.36137 30914 ft 508 kts 121°
2026-05-06 09:18 48.65847 19.45542 30915 ft 508 kts 121°
2026-05-06 09:19 48.62483 19.54926 30919 ft 508 kts 121°
2026-05-06 09:19 48.59111 19.64310 30921 ft 508 kts 121°
2026-05-06 09:20 48.55731 19.73684 30916 ft 508 kts 121°
2026-05-06 09:20 48.52331 19.83071 31311 ft 510 kts 121°
2026-05-06 09:20 48.50636 19.87741 31746 ft 506 kts 121°
2026-05-06 09:21 48.48950 19.92383 32226 ft 502 kts 121°
2026-05-06 09:21 48.47277 19.96975 32696 ft 499 kts 121°
2026-05-06 09:21 48.45609 20.01548 32951 ft 499 kts 121°
2026-05-06 09:22 48.42247 20.10730 32925 ft 499 kts 121°
2026-05-06 09:22 48.38901 20.19844 32916 ft 497 kts 121°
2026-05-06 09:23 48.35552 20.28938 32911 ft 497 kts 121°
2026-05-06 09:23 48.32180 20.38012 32927 ft 497 kts 123°
2026-05-06 09:24 48.28521 20.46815 32939 ft 497 kts 125°
2026-05-06 09:24 48.24786 20.55566 32924 ft 498 kts 124°
2026-05-06 09:25 48.21057 20.64326 32939 ft 498 kts 124°
2026-05-06 09:25 48.17332 20.73096 32937 ft 499 kts 124°
2026-05-06 09:26 48.13624 20.81812 32939 ft 500 kts 124°
2026-05-06 09:26 48.09883 20.90576 32940 ft 500 kts 124°
2026-05-06 09:27 48.06132 20.99331 32939 ft 500 kts 124°
2026-05-06 09:27 48.02379 21.08063 32953 ft 499 kts 124°
2026-05-06 09:28 47.98617 21.16786 32940 ft 499 kts 124°
2026-05-06 09:28 47.94854 21.25487 32967 ft 499 kts 124°
2026-05-06 09:29 47.91078 21.34188 32975 ft 499 kts 124°
2026-05-06 09:29 47.87296 21.42875 32973 ft 500 kts 124°
2026-05-06 09:30 47.83509 21.51549 32950 ft 500 kts 124°
2026-05-06 09:30 47.79730 21.60179 32957 ft 500 kts 124°
2026-05-06 09:31 47.75927 21.68843 32987 ft 500 kts 124°
2026-05-06 09:31 47.72127 21.77499 32981 ft 500 kts 124°
2026-05-06 09:32 47.68320 21.86149 32981 ft 501 kts 124°
2026-05-06 09:32 47.64504 21.94789 32970 ft 501 kts 124°
2026-05-06 09:33 47.60678 22.03421 32994 ft 501 kts 125°
2026-05-06 09:33 47.56132 22.11155 32994 ft 497 kts 141°
2026-05-06 09:34 47.50488 22.16982 32994 ft 494 kts 152°
2026-05-06 09:34 47.44507 22.22015 32985 ft 495 kts 152°
2026-05-06 09:35 47.38522 22.27084 32999 ft 497 kts 152°
2026-05-06 09:35 47.32535 22.32203 32995 ft 498 kts 152°
2026-05-06 09:36 47.26579 22.37308 32995 ft 499 kts 152°
2026-05-06 09:36 47.20569 22.42447 33003 ft 500 kts 152°
2026-05-06 09:37 47.14547 22.47580 33005 ft 501 kts 152°
2026-05-06 09:37 47.08513 22.52707 33005 ft 502 kts 152°
2026-05-06 09:38 47.02467 22.57833 32995 ft 502 kts 152°
2026-05-06 09:38 46.96418 22.62946 33006 ft 502 kts 152°
2026-05-06 09:39 46.90366 22.68048 32999 ft 502 kts 152°
2026-05-06 09:39 46.84308 22.73143 33017 ft 502 kts 152°
2026-05-06 09:40 46.78248 22.78224 33016 ft 503 kts 152°
2026-05-06 09:40 46.69144 22.85834 33016 ft 503 kts 152°
2026-05-06 09:41 46.63070 22.90896 33011 ft 503 kts 152°
2026-05-06 09:41 46.56983 22.95953 33010 ft 504 kts 152°
2026-05-06 09:42 46.50930 23.00970 33016 ft 505 kts 152°
2026-05-06 09:42 46.44782 23.06052 33017 ft 505 kts 152°
2026-05-06 09:43 46.38714 23.11055 33016 ft 505 kts 152°
2026-05-06 09:43 46.32607 23.16079 33017 ft 505 kts 152°
2026-05-06 09:44 46.26500 23.21090 33009 ft 504 kts 152°
2026-05-06 09:44 46.20401 23.26078 33006 ft 504 kts 152°
2026-05-06 09:45 46.14299 23.31057 33022 ft 504 kts 152°
2026-05-06 09:45 46.08191 23.36029 33009 ft 504 kts 152°
2026-05-06 09:46 46.02077 23.40993 33003 ft 505 kts 152°
2026-05-06 09:46 45.96988 23.45116 32994 ft 506 kts 152°
2026-05-06 09:47 45.90853 23.50072 33012 ft 506 kts 152°
2026-05-06 09:47 45.84703 23.55029 33018 ft 507 kts 152°
2026-05-06 09:48 45.78535 23.59989 33011 ft 509 kts 152°
2026-05-06 09:48 45.72359 23.64940 33019 ft 509 kts 152°
2026-05-06 09:49 45.66167 23.69892 33020 ft 510 kts 152°
2026-05-06 09:49 45.59962 23.74842 33030 ft 511 kts 152°
2026-05-06 09:50 45.53754 23.79783 33027 ft 511 kts 152°
2026-05-06 09:50 45.47541 23.84715 33027 ft 511 kts 152°
2026-05-06 09:51 45.41331 23.89631 33028 ft 511 kts 152°
2026-05-06 09:51 45.35119 23.94536 33037 ft 510 kts 152°
2026-05-06 09:52 45.28916 23.99422 33035 ft 509 kts 152°
2026-05-06 09:52 45.22760 24.04259 33031 ft 509 kts 152°
2026-05-06 09:53 45.16559 24.09120 33035 ft 510 kts 152°
2026-05-06 09:53 45.10340 24.13983 33041 ft 512 kts 152°
2026-05-06 09:54 45.04093 24.18854 33031 ft 513 kts 152°
2026-05-06 09:54 44.97830 24.23725 33028 ft 514 kts 152°
2026-05-06 09:55 44.91556 24.28593 33022 ft 515 kts 152°
2026-05-06 09:55 44.85273 24.33456 33036 ft 515 kts 152°
2026-05-06 09:56 44.78985 24.38312 33024 ft 515 kts 152°
2026-05-06 09:56 44.72704 24.43148 33024 ft 514 kts 152°
2026-05-06 09:57 44.66428 24.47969 33013 ft 514 kts 152°
2026-05-06 09:57 44.60160 24.52772 33033 ft 514 kts 152°
2026-05-06 09:58 44.53882 24.57571 33026 ft 514 kts 152°
2026-05-06 09:58 44.47609 24.62354 33028 ft 514 kts 152°
2026-05-06 09:59 44.41327 24.67133 33017 ft 514 kts 152°
2026-05-06 09:59 44.35042 24.71901 33029 ft 515 kts 152°
2026-05-06 10:00 44.28736 24.76674 33025 ft 515 kts 152°
2026-05-06 10:00 44.22432 24.81434 33028 ft 515 kts 152°
2026-05-06 10:01 44.16164 24.86156 33007 ft 516 kts 152°
2026-05-06 10:01 44.09839 24.90908 33021 ft 516 kts 152°
2026-05-06 10:02 44.03521 24.95646 33018 ft 516 kts 152°
2026-05-06 10:02 43.97199 25.00374 33019 ft 515 kts 152°
2026-05-06 10:03 43.90923 25.05168 33018 ft 515 kts 150°